When you browse on this site, cookies collect data to enhance your experience and personalize the content and advertising you see.
Visit our Privacy Policy to learn more. By continuing to use the site, you agree to this use of cookies and data.

Stündliche Wetter Booué

Heute, 7 Juli, Dienstag

Zeit Temperatur Niederschläge Wind Luftdruck Luftfeuchtigkeit
00:00 +22°C° 0 mm 0 m/S 735 mmHg 91%
01:00 +22°C° 0 mm 0 m/S 734 mmHg 95%
02:00 +21°C° 0 mm 0 m/S 734 mmHg 95%
03:00 +21°C° 0 mm 0 m/S 734 mmHg 96%
04:00 +21°C° 0 mm 0 m/S 734 mmHg 97%
05:00 +21°C° 0 mm 0 m/S 734 mmHg 96%
06:00 +22°C° 0 mm 0 m/S 734 mmHg 95%
07:00 +22°C° 0 mm 0 m/S 735 mmHg 94%
08:00 +23°C° 0 mm 0 m/S 735 mmHg 86%
09:00 +27°C° 0 mm 1 m/S 735 mmHg 78%
10:00 +29°C° 0 mm 1 m/S 736 mmHg 70%
11:00 +30°C° 0 mm 1 m/S 735 mmHg 64%
12:00 +31°C° 0 mm 1 m/S 734 mmHg 59%
13:00 +33°C° 0 mm 1 m/S 733 mmHg 53%
14:00 +33°C° 0 mm 1 m/S 733 mmHg 52%
15:00 +33°C° 0 mm 1 m/S 732 mmHg 51%
16:00 +31°C° 0 mm 0 m/S 731 mmHg 50%
17:00 +31°C° 0 mm 1 m/S 731 mmHg 59%
18:00 +29°C° 0 mm 1 m/S 732 mmHg 68%
19:00 +27°C° 0 mm 1 m/S 732 mmHg 77%
20:00 +26°C° 0 mm 1 m/S 733 mmHg 80%
21:00 +26°C° 0 mm 1 m/S 733 mmHg 83%
22:00 +25°C° 0 mm 1 m/S 734 mmHg 86%
23:00 +25°C° 0 mm 1 m/S 734 mmHg 87%

Morgen, 8 Juli, Mittwoch

Zeit Temperatur Niederschläge Wind Luftdruck Luftfeuchtigkeit
00:00 +24°C° 0 mm 1 m/S 734 mmHg 89%
01:00 +24°C° 0 mm 1 m/S 734 mmHg 90%
02:00 +24°C° 0 mm 1 m/S 734 mmHg 92%
03:00 +23°C° 0 mm 1 m/S 733 mmHg 94%
04:00 +21°C° 0 mm 0 m/S 733 mmHg 95%
05:00 +21°C° 0 mm 0 m/S 733 mmHg 94%
06:00 +23°C° 0 mm 1 m/S 734 mmHg 93%
07:00 +24°C° 0 mm 1 m/S 734 mmHg 92%
08:00 +25°C° 0 mm 1 m/S 735 mmHg 84%
09:00 +27°C° 0 mm 1 m/S 735 mmHg 77%
10:00 +28°C° 0 mm 1 m/S 735 mmHg 69%
11:00 +30°C° 0 mm 1 m/S 735 mmHg 63%
12:00 +32°C° 0 mm 1 m/S 734 mmHg 56%
13:00 +34°C° 0 mm 1 m/S 734 mmHg 50%
14:00 +34°C° 0 mm 1 m/S 733 mmHg 50%
15:00 +33°C° 0 mm 1 m/S 732 mmHg 51%
16:00 +33°C° 0 mm 1 m/S 731 mmHg 51%
17:00 +31°C° 0.1 mm 1 m/S 732 mmHg 58%
18:00 +27°C° 0.1 mm 0 m/S 732 mmHg 64%
19:00 +26°C° 0.1 mm 0 m/S 733 mmHg 71%
20:00 +25°C° 0.1 mm 0 m/S 733 mmHg 74%
21:00 +24°C° 0.1 mm 0 m/S 733 mmHg 78%
22:00 +26°C° 0.1 mm 1 m/S 734 mmHg 81%
23:00 +25°C° 0 mm 1 m/S 734 mmHg 83%

übermorgen, 9 Juli, Donnerstag

Zeit Temperatur Niederschläge Wind Luftdruck Luftfeuchtigkeit
00:00 +25°C° 0 mm 1 m/S 734 mmHg 85%
01:00 +25°C° 0 mm 1 m/S 734 mmHg 87%
02:00 +24°C° 0 mm 1 m/S 734 mmHg 89%
03:00 +24°C° 0 mm 1 m/S 733 mmHg 91%
04:00 +23°C° 0 mm 1 m/S 733 mmHg 93%
05:00 +24°C° 0 mm 1 m/S 734 mmHg 92%
06:00 +24°C° 0 mm 1 m/S 734 mmHg 92%
07:00 +24°C° 0 mm 1 m/S 735 mmHg 91%
08:00 +25°C° 0 mm 1 m/S 735 mmHg 84%
09:00 +27°C° 0 mm 1 m/S 735 mmHg 78%
10:00 +28°C° 0 mm 1 m/S 736 mmHg 71%
11:00 +29°C° 0 mm 1 m/S 735 mmHg 66%
12:00 +31°C° 0 mm 2 m/S 734 mmHg 61%
13:00 +32°C° 0 mm 2 m/S 734 mmHg 56%
14:00 +32°C° 0 mm 2 m/S 733 mmHg 57%
15:00 +32°C° 0 mm 2 m/S 732 mmHg 58%
16:00 +31°C° 0 mm 2 m/S 732 mmHg 59%
17:00 +30°C° 0.3 mm 2 m/S 732 mmHg 66%
18:00 +28°C° 0.3 mm 2 m/S 733 mmHg 73%
19:00 +27°C° 0.3 mm 2 m/S 733 mmHg 80%
20:00 +26°C° 0.3 mm 1 m/S 734 mmHg 82%
21:00 +25°C° 0.3 mm 1 m/S 734 mmHg 85%
22:00 +25°C° 0.3 mm 1 m/S 734 mmHg 87%
23:00 +25°C° 0.1 mm 1 m/S 734 mmHg 88%

10 Juli, Freitag

Zeit Temperatur Niederschläge Wind Luftdruck Luftfeuchtigkeit
00:00 +24°C° 0.1 mm 1 m/S 734 mmHg 89%
01:00 +24°C° 0.1 mm 1 m/S 734 mmHg 90%
02:00 +24°C° 0 mm 1 m/S 734 mmHg 90%
03:00 +24°C° 0 mm 1 m/S 734 mmHg 91%
04:00 +23°C° 0 mm 2 m/S 734 mmHg 91%
05:00 +23°C° 0.1 mm 1 m/S 734 mmHg 91%
06:00 +23°C° 0.1 mm 1 m/S 735 mmHg 91%
07:00 +23°C° 0.1 mm 1 m/S 735 mmHg 92%
08:00 +24°C° 0 mm 1 m/S 735 mmHg 88%
09:00 +24°C° 0 mm 1 m/S 736 mmHg 84%
10:00 +25°C° 0 mm 1 m/S 736 mmHg 80%
11:00 +27°C° 0 mm 2 m/S 736 mmHg 73%
12:00 +28°C° 0 mm 2 m/S 735 mmHg 66%
13:00 +30°C° 0 mm 2 m/S 735 mmHg 60%
14:00 +30°C° 0 mm 2 m/S 734 mmHg 61%
15:00 +29°C° 0 mm 2 m/S 733 mmHg 63%
16:00 +29°C° 0 mm 2 m/S 733 mmHg 64%
17:00 +28°C° 0 mm 1 m/S 733 mmHg 69%
18:00 +26°C° 0 mm 1 m/S 733 mmHg 74%
19:00 +25°C° 0 mm 1 m/S 733 mmHg 79%
20:00 +25°C° 0 mm 1 m/S 734 mmHg 81%
21:00 +24°C° 0 mm 1 m/S 735 mmHg 83%
22:00 +24°C° 0 mm 1 m/S 735 mmHg 86%
23:00 +23°C° 0 mm 1 m/S 735 mmHg 87%

11 Juli, Samstag

Zeit Temperatur Niederschläge Wind Luftdruck Luftfeuchtigkeit
00:00 +23°C° 0 mm 1 m/S 735 mmHg 89%
01:00 +23°C° 0 mm 1 m/S 735 mmHg 91%
02:00 +23°C° 0 mm 1 m/S 735 mmHg 91%
03:00 +22°C° 0 mm 1 m/S 734 mmHg 92%
04:00 +22°C° 0 mm 1 m/S 734 mmHg 92%
05:00 +22°C° 0 mm 1 m/S 735 mmHg 92%
06:00 +22°C° 0 mm 1 m/S 735 mmHg 91%
07:00 +22°C° 0 mm 1 m/S 735 mmHg 90%
08:00 +23°C° 0 mm 1 m/S 736 mmHg 84%
09:00 +24°C° 0 mm 1 m/S 736 mmHg 78%
10:00 +26°C° 0 mm 1 m/S 736 mmHg 72%
11:00 +27°C° 0 mm 1 m/S 735 mmHg 68%
12:00 +28°C° 0 mm 1 m/S 735 mmHg 63%
13:00 +29°C° 0 mm 1 m/S 734 mmHg 59%
14:00 +30°C° 0 mm 1 m/S 734 mmHg 57%
15:00 +30°C° 0 mm 1 m/S 733 mmHg 55%
16:00 +31°C° 0 mm 1 m/S 733 mmHg 53%
17:00 +29°C° 0 mm 1 m/S 733 mmHg 60%
18:00 +28°C° 0 mm 1 m/S 733 mmHg 66%
19:00 +26°C° 0 mm 1 m/S 733 mmHg 72%
20:00 +26°C° 0 mm 1 m/S 734 mmHg 74%
21:00 +25°C° 0 mm 1 m/S 734 mmHg 77%
22:00 +25°C° 0 mm 1 m/S 735 mmHg 79%
23:00 +24°C° 0 mm 1 m/S 735 mmHg 81%

12 Juli, Sonntag

Zeit Temperatur Niederschläge Wind Luftdruck Luftfeuchtigkeit
00:00 +24°C° 0 mm 1 m/S 735 mmHg 82%
01:00 +24°C° 0 mm 1 m/S 735 mmHg 84%
02:00 +23°C° 0 mm 1 m/S 734 mmHg 86%
03:00 +23°C° 0 mm 1 m/S 734 mmHg 88%
04:00 +23°C° 0 mm 1 m/S 734 mmHg 90%
05:00 +23°C° 0 mm 1 m/S 735 mmHg 89%
06:00 +23°C° 0 mm 1 m/S 735 mmHg 88%
07:00 +23°C° 0 mm 1 m/S 736 mmHg 87%
08:00 +24°C° 0 mm 1 m/S 736 mmHg 81%
09:00 +25°C° 0 mm 1 m/S 736 mmHg 75%
10:00 +27°C° 0 mm 1 m/S 736 mmHg 69%
11:00 +28°C° 0 mm 1 m/S 736 mmHg 62%
12:00 +30°C° 0 mm 1 m/S 735 mmHg 56%
13:00 +32°C° 0 mm 2 m/S 735 mmHg 50%
14:00 +32°C° 0 mm 1 m/S 734 mmHg 50%
15:00 +32°C° 0 mm 1 m/S 733 mmHg 51%
16:00 +32°C° 0 mm 1 m/S 733 mmHg 51%
17:00 +30°C° 0 mm 1 m/S 733 mmHg 58%
18:00 +29°C° 0 mm 1 m/S 733 mmHg 65%
19:00 +27°C° 0 mm 1 m/S 734 mmHg 71%
20:00 +26°C° 0 mm 1 m/S 734 mmHg 74%
21:00 +26°C° 0 mm 1 m/S 735 mmHg 76%
22:00 +25°C° 0 mm 1 m/S 735 mmHg 79%
23:00 +25°C° 0 mm 1 m/S 735 mmHg 80%
Mehr zeigen